Terug naar catalogus

STARLINK-6030

ActiefCommunicatieVLEO
NORAD 56107·PAYLOAD·🇺🇸 United States

Gelanceerd Mar 29, 2023 vanaf Cape Canaveral Space Force Station

Loading…

Volgende Passages (komende 24 uur)

TLE

VersSource: CelesTrak SupGP

Epoch: Sep 14, 2026, 21:39 UTC

1 56107C 23046Q   26257.90256944 -.00059768  00000+0 -21634-2 0  2576
2 56107  43.0027 173.2972 0001349 269.5795 154.6581 15.27628958    12

Volg STARLINK-6030 in realtime met AllMySat

Download on the App Store